Location: Aufkirchen
(47.9603°N, 11.3653°E)
Time: 13:56:35
(UTC+01:00)

Transit 2A Rocket - Pass Details

Date: 11 December 2020
Orbit: 592 x 910 km, 66.7° (Epoch: 21 January)

Event Time Altitude Azimuth Distance (km) Brightness Sun altitude
Rises 04:36:52 0° 322° (NW) 3,243 - -31.9°
Reaches altitude 10° 04:42:04 10° 5° (N) 2,205 - -31.1°
Maximum altitude 04:42:40 10° 12° (NNE) 2,179 - -31.0°
Exits shadow 04:42:46 10° 14° (NNE) 2,177 7.5 -30.9°
Drops below altitude 10° 04:43:16 10° 19° (NNE) 2,179 7.5 -30.9°
Sets 04:48:07 0° 64° (ENE) 2,994 9.0 -30.0°
